[[{"header":{"parameterUnit":"m.s-1","parameterCategory":2,"la1":30.2991,"la2":30.254,"lo1":-89.0895,"lo2":-89.0444,"dy":0.0017,"dx":0.0017,"nx":28,"ny":28,"refTime":"2024-08-01T09:00:00:Z","depth":"0","parameterNumber":2,"parameterNumberName":"U-component_of_CURRENTS"},"data":[0,0,0,0,0,0,0,0,0,0,0,0,0,0,0,0,0,0,0,0,0,0,0,0,0,0,0,0,0,0,0,0,0,0,0,0,0,0,0,0,0,0,0,0,0,0,0,0,0,0,0,0,0,0,0,0,0,0,-0.2499,-0.2498,0,-0.2404,-0.2403,-0.2402,-0.2345,-0.2345,-0.2345,-0.2344,-0.2295,-0.2294,-0.2293,0,0,0,0,0,0,0,0,0,0,0,0,0,-0.2671,-0.2668,-0.25,-0.2498,-0.2497,-0.2404,-0.2403,-0.2401,-0.2345,-0.2345,-0.2345,-0.2344,-0.2296,-0.2294,-0.2293,0,0,0,0,0,0,0,0,0,0,0,0,0,-0.2589,-0.2667,-0.25,-0.2457,-0.2452,-0.2404,-0.2403,-0.2401,-0.2345,-0.2345,-0.2344,-0.2344,-0.2296,-0.2294,-0.2293,-0.2293,0,0,-0.2288,-0.2288,0,0,0,0,0,0,0,0,-0.2594,-0.2583,-0.2465,-0.246,-0.2455,-0.2385,-0.2445,-0.2367,-0.2346,-0.2387,-0.2344,-0.2344,-0.233,-0.2325,-0.2309,-0.229,-0.2288,-0.2288,-0.2287,-0.2286,-0.2286,0,0,0,0,0,0,0,-0.2599,-0.2587,-0.2462,-0.2463,-0.2457,-0.2456,-0.2443,-0.243,-0.2363,-0.2383,-0.2379,-0.2367,-0.2327,-0.231,-0.2307,-0.2287,-0.2288,-0.2287,-0.2286,-0.2285,-0.2253,-0.2253,0,0,0,0,0,0,-0.2608,-0.2592,-0.2465,-0.2459,-0.2524,-0.2453,-0.2439,-0.2409,-0.2362,-0.2354,-0.2367,-0.2365,-0.2313,-0.2309,-0.2305,-0.2284,-0.2287,-0.2285,-0.2284,-0.2253,-0.2253,-0.2253,0,0,0,0,0,0,-0.2611,-0.2597,-0.2469,-0.2524,-0.2508,-0.245,-0.2417,-0.2407,-0.239,-0.235,-0.2343,-0.2361,-0.2312,-0.2307,-0.2295,-0.2282,-0.2284,-0.2283,-0.2253,-0.2253,-0.2253,-0.2253,0,0,0,0,0,0,-0.2616,-0.2598,-0.2585,-0.2524,-0.2505,-0.2448,-0.2417,-0.2405,-0.2383,-0.2379,-0.2342,-0.2336,-0.2312,-0.2297,-0.2293,-0.228,-0.2282,-0.2253,-0.2253,-0.2253,-0.2253,-0.2253,-0.2253,0,0,0,0,0,-0.2623,-0.2605,-0.2584,-0.2569,-0.2486,-0.2448,-0.2439,-0.2398,-0.2384,-0.2381,-0.2354,-0.2338,-0.2295,-0.2297,-0.2292,-0.2277,-0.2253,-0.2253,-0.2253,-0.2252,-0.2253,-0.2253,0,0,0,0,0,0,-0.2662,-0.2596,-0.2572,-0.2531,-0.2497,-0.2439,-0.2431,-0.2404,-0.2379,-0.2381,-0.2341,-0.2334,-0.2319,-0.2305,-0.2307,-0.227,-0.227,-0.227,-0.2272,-0.2272,-0.2272,-0.2282,-0.228,0,0,0,0,0,-0.2667,-0.2643,-0.2581,-0.2552,-0.2537,-0.2488,-0.2469,-0.2445,-0.2411,-0.2399,-0.2367,-0.234,-0.2316,-0.23,-0.2284,-0.2266,-0.2247,-0.2254,-0.2254,-0.2254,-0.226,-0.2233,-0.223,-0.2254,-0.2254,-0.2254,0,0,-0.2674,-0.2636,-0.262,-0.2562,-0.2532,-0.2506,-0.2476,-0.2456,-0.2428,-0.2401,-0.2364,-0.2347,-0.2315,-0.229,-0.2281,-0.2275,-0.2233,-0.2255,-0.2255,-0.2261,-0.2232,-0.223,-0.2228,-0.2254,-0.2254,-0.2254,0,0,-0.2671,-0.2644,-0.2618,-0.2604,-0.2566,-0.2534,-0.2532,-0.248,-0.2452,-0.2424,-0.2392,-0.237,-0.2331,-0.2297,-0.2276,-0.2272,-0.2242,-0.2266,-0.2263,-0.2235,-0.2233,-0.2231,-0.2182,-0.2176,-0.2257,-0.2257,-0.2257,0,-0.2681,-0.2609,-0.261,-0.2592,-0.256,-0.2548,-0.2507,-0.2496,-0.2445,-0.2415,-0.2418,-0.2349,-0.233,-0.2279,-0.2278,-0.227,-0.2246,-0.2261,-0.2235,-0.2232,-0.223,-0.2181,-0.2174,-0.2257,-0.2257,-0.2257,-0.2257,0,-0.2623,-0.26,-0.2592,-0.255,-0.255,-0.2508,-0.2497,-0.2487,-0.2457,-0.2424,-0.2381,-0.2357,-0.231,-0.23,-0.2288,-0.2254,-0.2239,-0.2244,-0.2233,-0.2228,-0.2176,-0.2168,-0.2257,-0.2257,-0.2257,-0.2257,0,0,-0.2485,-0.2534,-0.2514,-0.2521,-0.2503,-0.2498,-0.2484,-0.2426,-0.2414,-0.2387,-0.2337,-0.2305,-0.2301,-0.2279,-0.226,-0.2241,-0.2201,-0.224,-0.2238,-0.2188,-0.2123,-0.2032,-0.2015,-0.2202,-0.2202,-0.2201,-0.2085,0,-0.2389,-0.2383,-0.24,-0.2385,-0.2376,-0.2397,-0.2387,-0.2385,-0.2368,-0.2346,-0.2318,-0.2293,-0.2289,-0.2279,-0.2255,-0.2228,-0.2186,-0.2231,-0.2139,-0.2136,-0.2053,-0.2005,-0.1899,-0.178,-0.2077,-0.2076,-0.2075,0,-0.2243,-0.2266,-0.225,-0.2318,-0.2307,-0.2311,-0.2299,-0.2298,-0.2301,-0.2295,-0.2277,-0.2275,-0.2241,-0.2256,-0.218,-0.221,-0.2166,-0.2142,-0.2137,-0.205,-0.2031,-0.1838,-0.1755,-0.1757,-0.2064,-0.2065,-0.2065,0,-0.2115,-0.2136,-0.2125,-0.2139,-0.222,-0.2213,-0.2236,-0.2264,-0.2255,-0.2278,-0.2251,-0.2247,-0.2203,-0.2189,-0.2133,-0.2162,-0.2047,-0.2075,-0.1937,-0.1929,-0.182,-0.1804,-0.1726,-0.2009,-0.201,-0.201,-0.201,0,-0.1973,-0.1966,-0.2082,-0.2086,-0.2086,-0.2169,-0.216,-0.2199,-0.2215,-0.2129,-0.2219,-0.2108,-0.2185,-0.2119,-0.2113,-0.1981,-0.2016,-0.1919,-0.1889,-0.1814,-0.1799,-0.1782,-0.1819,-0.2005,-0.2006,-0.2007,-0.2008,0,-0.1863,-0.192,-0.1941,-0.2021,-0.2047,-0.2067,-0.2132,-0.2089,-0.2148,-0.2035,-0.203,-0.2004,-0.1903,-0.196,-0.1911,-0.1895,-0.1794,-0.1777,-0.1676,-0.1637,-0.1527,-0.1568,-0.1471,-0.1428,-0.1615,-0.1612,-0.161,0,-0.1821,-0.1817,-0.1906,-0.1906,-0.194,-0.1985,-0.1955,-0.2045,-0.1959,-0.1875,-0.1735,-0.1696,-0.1487,-0.1454,-0.1534,-0.1535,-0.1597,-0.1446,-0.1486,-0.1483,-0.1508,-0.1567,-0.1544,-0.1333,-0.1328,-0.1325,-0.1322,0,-0.1731,-0.1758,-0.1788,-0.1791,-0.1774,-0.1761,-0.1714,-0.1669,-0.1634,-0.1535,-0.1279,-0.114,-0.1072,-0.1017,-0.1128,-0.1143,-0.1418,-0.1364,-0.1388,-0.1293,-0.1324,-0.128,-0.1449,-0.1288,-0.1291,-0.1294,-0.1296,-0.1297,-0.165,-0.1654,-0.1667,-0.1648,-0.1612,-0.1482,-0.1408,-0.1303,-0.1175,-0.095,-0.0856,-0.058,-0.0572,-0.0689,-0.0782,-0.0987,-0.1077,-0.1026,-0.1076,-0.1136,-0.1095,-0.1176,-0.0973,-0.0975,-0.0976,-0.0977,-0.0978,0,-0.1529,-0.1523,-0.1502,-0.1445,-0.1293,-0.1343,-0.1167,-0.1028,-0.0791,-0.0589,-0.0374,-0.0105,-0.0159,-0.0333,-0.0655,-0.0731,-0.0778,-0.079,-0.0866,-0.0857,-0.0927,-0.0915,-0.0656,-0.0656,-0.0656,-0.0656,-0.0656,-0.0656,-0.1463,-0.1397,-0.1382,-0.1132,-0.1062,-0.0818,-0.0697,-0.0525,-0.0359,-0.0032,0.0179,0.0315,0.0208,-0.0297,-0.0634,-0.068,-0.0722,-0.0693,-0.0763,-0.0844,-0.0872,-0.0899,-0.0896,-0.0637,-0.0638,-0.0644,-0.0644,-0.0644]},{"header":{"parameterUnit":"m.s-1","parameterCategory":2,"la1":30.2991,"la2":30.254,"lo1":-89.0895,"lo2":-89.0444,"dy":0.0017,"dx":0.0017,"nx":28,"ny":28,"refTime":"2024-08-01T09:00:00:Z","depth":"0","parameterNumber":3,"parameterNumberName":"V-component_of_CURRENTS"},"data":[0,0,0,0,0,0,0,0,0,0,0,0,0,0,0,0,0,0,0,0,0,0,0,0,0,0,0,0,0,0,0,0,0,0,0,0,0,0,0,0,0,0,0,0,0,0,0,0,0,0,0,0,0,0,0,0,0,0,-0.0966,-0.0966,0,-0.0826,-0.0823,-0.0821,-0.0746,-0.0748,-0.0749,-0.075,-0.0293,-0.028,-0.0267,0,0,0,0,0,0,0,0,0,0,0,0,0,-0.091,-0.0911,-0.0966,-0.0966,-0.0966,-0.0827,-0.0823,-0.082,-0.0746,-0.0748,-0.0749,-0.0751,-0.0297,-0.0281,-0.0265,0,0,0,0,0,0,0,0,0,0,0,0,0,-0.0855,-0.0912,-0.0966,-0.0923,-0.0919,-0.0827,-0.0823,-0.0819,-0.0746,-0.0748,-0.075,-0.0751,-0.0302,-0.0283,-0.0263,-0.0102,0,0,-0.0202,-0.0193,0,0,0,0,0,0,0,0,-0.0858,-0.0855,-0.093,-0.0926,-0.0922,-0.0819,-0.0637,-0.0569,-0.0745,-0.0795,-0.075,-0.0752,-0.0448,-0.0416,-0.0368,-0.008,-0.0061,-0.02,-0.0188,-0.0179,-0.0174,0,0,0,0,0,0,0,-0.0862,-0.0859,-0.0895,-0.093,-0.0925,-0.0823,-0.0818,-0.0622,-0.0595,-0.0791,-0.0789,-0.0797,-0.0441,-0.0388,-0.0356,-0.0054,-0.0201,-0.0183,-0.0171,-0.0163,0.0414,0.0417,0,0,0,0,0,0,-0.0922,-0.0864,-0.09,-0.0893,-0.0911,-0.0825,-0.0818,-0.0837,-0.0604,-0.0577,-0.0796,-0.0795,-0.0421,-0.038,-0.034,-0.0147,-0.018,-0.0161,-0.0149,0.0411,0.0415,0.0418,0,0,0,0,0,0,-0.0921,-0.0927,-0.0906,-0.0886,-0.0879,-0.0827,-0.0847,-0.0834,-0.0797,-0.0614,-0.0578,-0.0777,-0.0421,-0.0368,-0.0152,-0.0128,-0.0152,-0.0134,0.0407,0.0412,0.0417,0.0248,0,0,0,0,0,0,-0.092,-0.0927,-0.0944,-0.0891,-0.0883,-0.0854,-0.0847,-0.0831,-0.0805,-0.0802,-0.0584,-0.0544,-0.0419,-0.0183,-0.0132,-0.0101,-0.0118,0.0403,0.0409,0.0415,0.025,0.0247,0.0245,0,0,0,0,0,-0.0919,-0.0929,-0.0946,-0.095,-0.0914,-0.0854,-0.0837,-0.0795,-0.0804,-0.0769,-0.0618,-0.0551,-0.0109,-0.0162,-0.0104,-0.0067,0.04,0.0407,0.0414,0.0251,0.0248,0.0245,0,0,0,0,0,0,-0.0908,-0.0923,-0.0939,-0.0956,-0.0919,-0.0848,-0.0818,-0.0802,-0.0661,-0.0644,-0.0485,-0.043,-0.0226,-0.0109,-0.0174,0.0122,0.015,0.0169,0.0005,0.0004,0.0002,-0.0095,-0.0101,0,0,0,0,0,-0.0923,-0.0937,-0.0927,-0.0936,-0.0925,-0.0877,-0.0848,-0.0819,-0.0709,-0.0655,-0.0505,-0.0326,-0.0143,-0.0049,0.0149,0.0316,0.0355,0.0377,0.0374,0.037,0.0336,0.0392,0.0387,0.0443,0.0443,0.0443,0,0,-0.0923,-0.0935,-0.0943,-0.0934,-0.0901,-0.0846,-0.0858,-0.0813,-0.0753,-0.0613,-0.045,-0.0303,-0.009,0.0096,0.0192,0.0187,0.0385,0.038,0.0374,0.0342,0.0398,0.0391,0.0385,0.0448,0.0447,0.0446,0,0,-0.0896,-0.094,-0.0924,-0.0894,-0.0864,-0.0828,-0.0828,-0.075,-0.0707,-0.0535,-0.0432,-0.0308,0.0013,0.0105,0.0208,0.0314,0.0386,0.0404,0.0293,0.0348,0.034,0.0334,0.0382,0.0381,0.0377,0.0377,0.0377,0,-0.089,-0.0899,-0.0902,-0.086,-0.0853,-0.0827,-0.0791,-0.0713,-0.0568,-0.0539,-0.0485,-0.0151,0.0003,0.0152,0.0174,0.0296,0.0344,0.0271,0.0331,0.0326,0.0322,0.0374,0.0375,0.037,0.0371,0.0371,0.0372,0,-0.0831,-0.0842,-0.0826,-0.0785,-0.0752,-0.0725,-0.0661,-0.0603,-0.0553,-0.049,-0.0337,-0.0156,0.0003,0.0078,0.0167,0.0221,0.0271,0.0326,0.0302,0.0304,0.0362,0.0366,0.036,0.0362,0.0364,0.0366,0,0,-0.0818,-0.08,-0.0794,-0.0802,-0.0737,-0.0713,-0.0623,-0.0572,-0.0544,-0.0403,-0.0363,-0.0134,-0.012,-0.0008,0.0085,0.0105,0.0114,0.0179,0.0186,0.0161,0.0232,0.0277,0.0287,0.0173,0.0173,0.0173,0.028,0,-0.0785,-0.0757,-0.0735,-0.0697,-0.0696,-0.0665,-0.0593,-0.0531,-0.0459,-0.0385,-0.0302,-0.0165,-0.0122,-0.0064,-0.0048,0.0111,0.0118,0.0079,0.0292,0.0298,0.0282,0.0291,0.0376,0.0481,0.0285,0.0286,0.0286,0,-0.0736,-0.0746,-0.0733,-0.074,-0.0733,-0.0683,-0.0658,-0.0586,-0.049,-0.0435,-0.037,-0.0258,-0.0194,-0.0153,-0.0006,-0.0026,0.0065,0.0154,0.0162,0.0254,0.035,0.0457,0.0496,0.0601,0.0293,0.0293,0.0292,0,-0.0777,-0.0751,-0.0778,-0.0767,-0.073,-0.0728,-0.0703,-0.0618,-0.0557,-0.0485,-0.0405,-0.0333,-0.0226,-0.0151,0.0025,0.0019,0.019,0.0223,0.0338,0.0343,0.0481,0.0498,0.0584,0.0287,0.0287,0.0287,0.0286,0,-0.0788,-0.0801,-0.0809,-0.0817,-0.084,-0.0789,-0.0768,-0.0734,-0.0627,-0.053,-0.0454,-0.0333,-0.0215,-0.0075,0.0009,0.019,0.0183,0.0304,0.0368,0.0433,0.0444,0.0595,0.0629,0.0291,0.029,0.0289,0.0288,0,-0.0826,-0.083,-0.0863,-0.0864,-0.0864,-0.0884,-0.0809,-0.0752,-0.0666,-0.0534,-0.0494,-0.0301,-0.0125,-0.0005,0.0171,0.0233,0.0449,0.0422,0.0481,0.0547,0.072,0.0742,0.0883,0.0977,0.0548,0.0549,0.0551,0,-0.0848,-0.087,-0.0913,-0.0924,-0.0929,-0.093,-0.0886,-0.0804,-0.0706,-0.0482,-0.0391,-0.0183,0.0,0.0242,0.0352,0.0483,0.0573,0.0653,0.0635,0.0721,0.0795,0.0799,0.0868,0.0769,0.0772,0.0775,0.0777,0,-0.089,-0.091,-0.0948,-0.0963,-0.0952,-0.0917,-0.0846,-0.0768,-0.0608,-0.0482,-0.0249,-0.009,0.0176,0.0401,0.0571,0.0646,0.0752,0.0708,0.0803,0.0959,0.0969,0.1095,0.0696,0.0799,0.0797,0.0795,0.0794,0.0793,-0.0919,-0.096,-0.098,-0.098,-0.0948,-0.0843,-0.0783,-0.0662,-0.0513,-0.0252,-0.0158,0.0102,0.0446,0.0702,0.0757,0.0981,0.0929,0.1083,0.11,0.1093,0.1182,0.0808,0.0975,0.0974,0.0973,0.0972,0.0971,0,-0.0915,-0.0938,-0.096,-0.0928,-0.0828,-0.0828,-0.0678,-0.0563,-0.0372,-0.0189,-0.0004,0.0402,0.0739,0.099,0.1292,0.1381,0.1387,0.145,0.1491,0.1542,0.1238,0.1247,0.1474,0.1474,0.1474,0.1474,0.1474,0.1474,-0.0911,-0.0917,-0.0911,-0.077,-0.0728,-0.0567,-0.0468,-0.0326,-0.0178,0.0122,0.0348,0.0521,0.0976,0.141,0.1701,0.172,0.1835,0.1824,0.1862,0.1659,0.1625,0.1594,0.161,0.191,0.1911,0.2202,0.2205,0.2207]}],[{"header":{"parameterUnit":"m.s-1","parameterCategory":2,"la1":30.2991,"la2":30.254,"lo1":-89.0895,"lo2":-89.0444,"dy":0.0017,"dx":0.0017,"nx":28,"ny":28,"refTime":"2024-08-01T09:00:00:Z","depth":"2","parameterNumber":2,"parameterNumberName":"U-component_of_CURRENTS"},"data":[0,0,0,0,0,0,0,0,0,0,0,0,0,0,0,0,0,0,0,0,0,0,0,0,0,0,0,0,0,0,0,0,0,0,0,0,0,0,0,0,0,0,0,0,0,0,0,0,0,0,0,0,0,0,0,0,0,0,-0.211,-0.2111,0,-0.2203,-0.2204,-0.2205,-0.2247,-0.2246,-0.2246,-0.2245,-0.2338,-0.234,-0.2343,0,0,0,0,0,0,0,0,0,0,0,0,0,-0.2036,-0.2037,-0.211,-0.2111,-0.2112,-0.2202,-0.2204,-0.2206,-0.2247,-0.2246,-0.2246,-0.2245,-0.2337,-0.234,-0.2344,0,0,0,0,0,0,0,0,0,0,0,0,0,-0.2096,-0.2037,-0.211,-0.214,-0.2143,-0.2202,-0.2204,-0.2206,-0.2247,-0.2246,-0.2245,-0.2245,-0.2335,-0.234,-0.2344,-0.2387,0,0,-0.2358,-0.2359,0,0,0,0,0,0,0,0,-0.2093,-0.2099,-0.2135,-0.2138,-0.2142,-0.2208,-0.2211,-0.2265,-0.2247,-0.2212,-0.2245,-0.2244,-0.2292,-0.23,-0.2325,-0.2391,-0.2395,-0.2358,-0.2361,-0.2362,-0.2364,0,0,0,0,0,0,0,-0.2088,-0.2096,-0.2151,-0.2136,-0.214,-0.2171,-0.2179,-0.2222,-0.2259,-0.2215,-0.2217,-0.2221,-0.2294,-0.2321,-0.2328,-0.2396,-0.2358,-0.2362,-0.2364,-0.2366,-0.2424,-0.2423,0,0,0,0,0,0,-0.2066,-0.2092,-0.2148,-0.2154,-0.211,-0.2172,-0.2181,-0.2191,-0.2258,-0.2267,-0.2221,-0.2222,-0.2314,-0.2323,-0.2331,-0.233,-0.2362,-0.2367,-0.2369,-0.2425,-0.2424,-0.2423,0,0,0,0,0,0,-0.2064,-0.207,-0.2145,-0.2121,-0.2132,-0.2173,-0.2185,-0.2193,-0.2219,-0.2262,-0.2271,-0.2237,-0.2314,-0.2325,-0.2351,-0.2336,-0.2369,-0.2373,-0.2427,-0.2425,-0.2423,-0.2364,0,0,0,0,0,0,-0.2062,-0.2069,-0.2074,-0.2119,-0.2132,-0.2165,-0.2186,-0.2196,-0.222,-0.2222,-0.2279,-0.2287,-0.2314,-0.2344,-0.2356,-0.2343,-0.2376,-0.2428,-0.2426,-0.2424,-0.2368,-0.2361,-0.2355,0,0,0,0,0,-0.2059,-0.2071,-0.2074,-0.2081,-0.2136,-0.2164,-0.2174,-0.2204,-0.2221,-0.2227,-0.2257,-0.2285,-0.2338,-0.2348,-0.2361,-0.2349,-0.2429,-0.2427,-0.2424,-0.2371,-0.2362,-0.2355,0,0,0,0,0,0,-0.2046,-0.2077,-0.2081,-0.2103,-0.212,-0.2169,-0.2185,-0.2205,-0.224,-0.2242,-0.2286,-0.2296,-0.2305,-0.2338,-0.2347,-0.2356,-0.2383,-0.2383,-0.2337,-0.233,-0.2324,-0.2333,-0.238,0,0,0,0,0,-0.2042,-0.2053,-0.2083,-0.2095,-0.2107,-0.2146,-0.2165,-0.2179,-0.2212,-0.2228,-0.2263,-0.2292,-0.2308,-0.2327,-0.2347,-0.2373,-0.2377,-0.2367,-0.236,-0.2355,-0.2368,-0.2356,-0.235,-0.2415,-0.2415,-0.2415,0,0,-0.204,-0.2055,-0.2063,-0.2091,-0.2115,-0.2134,-0.2157,-0.2178,-0.219,-0.2233,-0.2262,-0.2273,-0.2306,-0.2315,-0.2323,-0.2343,-0.233,-0.2352,-0.2347,-0.2364,-0.2353,-0.2347,-0.2341,-0.2413,-0.2413,-0.2414,0,0,-0.2034,-0.2056,-0.2061,-0.2077,-0.2097,-0.2123,-0.2125,-0.2165,-0.2179,-0.2201,-0.222,-0.222,-0.227,-0.2277,-0.2291,-0.2267,-0.2289,-0.2271,-0.2262,-0.2248,-0.2243,-0.2239,-0.2199,-0.2192,-0.2277,-0.2277,-0.2277,0,-0.2031,-0.2044,-0.2065,-0.2074,-0.2094,-0.2116,-0.2132,-0.215,-0.2187,-0.2199,-0.2196,-0.2233,-0.2248,-0.226,-0.2242,-0.2253,-0.2247,-0.2288,-0.224,-0.2236,-0.2233,-0.2194,-0.2186,-0.2274,-0.2274,-0.2275,-0.2275,0,-0.2026,-0.2041,-0.2049,-0.2068,-0.2089,-0.2104,-0.2129,-0.2144,-0.216,-0.2173,-0.2177,-0.2186,-0.2211,-0.2199,-0.2219,-0.2203,-0.2204,-0.2224,-0.226,-0.2223,-0.2183,-0.2177,-0.2269,-0.227,-0.2271,-0.2272,0,0,-0.2003,-0.2042,-0.2041,-0.2054,-0.2091,-0.2106,-0.2128,-0.2155,-0.2171,-0.2168,-0.2183,-0.2175,-0.2176,-0.219,-0.2197,-0.2184,-0.2128,-0.2199,-0.2199,-0.216,-0.2081,-0.1994,-0.1979,-0.2147,-0.2146,-0.2146,-0.2049,0,-0.1994,-0.2013,-0.2039,-0.206,-0.2078,-0.2115,-0.2138,-0.2158,-0.2174,-0.2187,-0.2173,-0.2182,-0.2175,-0.2179,-0.216,-0.2149,-0.2115,-0.2151,-0.2124,-0.2123,-0.2052,-0.197,-0.184,-0.1737,-0.2043,-0.2042,-0.2042,0,-0.1969,-0.1992,-0.2016,-0.2067,-0.208,-0.2095,-0.2144,-0.2165,-0.2186,-0.2198,-0.2197,-0.2198,-0.2177,-0.2171,-0.2118,-0.2146,-0.2109,-0.2086,-0.2082,-0.2026,-0.2025,-0.1831,-0.1714,-0.2031,-0.2032,-0.2033,-0.2034,0,-0.1926,-0.1972,-0.1994,-0.201,-0.2069,-0.2087,-0.212,-0.2159,-0.218,-0.2201,-0.2217,-0.2195,-0.2185,-0.2143,-0.2085,-0.2111,-0.2011,-0.2042,-0.1918,-0.1911,-0.1807,-0.1792,-0.1988,-0.1988,-0.1989,-0.1989,-0.1989,0,-0.19,-0.1911,-0.1973,-0.198,-0.2006,-0.2061,-0.2084,-0.2122,-0.2166,-0.2194,-0.2213,-0.2231,-0.2182,-0.2128,-0.2075,-0.1955,-0.1996,-0.1894,-0.1876,-0.1777,-0.1761,-0.2043,-0.2051,-0.1985,-0.1986,-0.1987,-0.1987,0,-0.183,-0.1877,-0.1895,-0.1961,-0.1979,-0.199,-0.2055,-0.2071,-0.2139,-0.2179,-0.219,-0.2231,-0.216,-0.2072,-0.1987,-0.1931,-0.1836,-0.1783,-0.165,-0.1617,-0.1749,-0.1755,-0.1642,-0.1638,-0.1635,-0.1632,-0.1629,0,-0.1795,-0.1798,-0.1855,-0.1863,-0.1887,-0.1919,-0.194,-0.2027,-0.2049,-0.219,-0.2193,-0.2174,-0.2149,-0.1963,-0.1795,-0.162,-0.1711,-0.1447,-0.1472,-0.1717,-0.1712,-0.1723,-0.1733,-0.1296,-0.1291,-0.1287,-0.1284,0,-0.1719,-0.1737,-0.1755,-0.1762,-0.1782,-0.1811,-0.1852,-0.1873,-0.1996,-0.2043,-0.2124,-0.214,-0.2,-0.1764,-0.1529,-0.1429,-0.1463,-0.1361,-0.1637,-0.1411,-0.1384,-0.1382,-0.1404,-0.1248,-0.1251,-0.1254,-0.1256,-0.1257,-0.1648,-0.163,-0.164,-0.1637,-0.1665,-0.1673,-0.1663,-0.1717,-0.1743,-0.1788,-0.1933,-0.1881,-0.1849,-0.1395,-0.1258,-0.1086,-0.1196,-0.1152,-0.1167,-0.1186,-0.117,-0.114,-0.0953,-0.0954,-0.0956,-0.0957,-0.0959,0,-0.154,-0.1521,-0.1511,-0.1492,-0.146,-0.1544,-0.1575,-0.1532,-0.1514,-0.1562,-0.1585,-0.1401,-0.124,-0.1164,-0.0852,-0.0795,-0.0807,-0.0759,-0.0801,-0.0834,-0.0865,-0.0837,-0.0529,-0.0528,-0.0527,-0.0526,0,0,-0.1476,-0.1412,-0.1394,-0.1279,-0.1287,-0.1244,-0.1255,-0.1215,-0.1197,-0.1108,-0.106,-0.115,-0.1173,-0.0873,-0.0782,-0.0619,-0.0728,-0.0569,-0.0911,-0.0997,-0.1027,-0.108,-0.1071,0,0,0,0,0]},{"header":{"parameterUnit":"m.s-1","parameterCategory":2,"la1":30.2991,"la2":30.254,"lo1":-89.0895,"lo2":-89.0444,"dy":0.0017,"dx":0.0017,"nx":28,"ny":28,"refTime":"2024-08-01T09:00:00:Z","depth":"2","parameterNumber":3,"parameterNumberName":"V-component_of_CURRENTS"},"data":[0,0,0,0,0,0,0,0,0,0,0,0,0,0,0,0,0,0,0,0,0,0,0,0,0,0,0,0,0,0,0,0,0,0,0,0,0,0,0,0,0,0,0,0,0,0,0,0,0,0,0,0,0,0,0,0,0,0,-0.039,-0.0389,0,-0.0335,-0.0334,-0.0333,-0.0294,-0.0294,-0.0294,-0.0294,-0.0146,-0.0142,-0.0138,0,0,0,0,0,0,0,0,0,0,0,0,0,-0.0436,-0.0435,-0.039,-0.0389,-0.0389,-0.0335,-0.0334,-0.0333,-0.0294,-0.0294,-0.0294,-0.0294,-0.0147,-0.0142,-0.0138,0,0,0,0,0,0,0,0,0,0,0,0,0,-0.04,-0.0435,-0.039,-0.0364,-0.0361,-0.0335,-0.0334,-0.0333,-0.0294,-0.0294,-0.0294,-0.0294,-0.0148,-0.0143,-0.0137,-0.0107,0,0,-0.012,-0.0117,0,0,0,0,0,0,0,0,-0.0403,-0.0399,-0.0368,-0.0366,-0.0363,-0.0323,-0.0296,-0.0253,-0.0294,-0.0318,-0.0294,-0.0294,-0.0197,-0.0188,-0.0177,-0.01,-0.0093,-0.0119,-0.0116,-0.0113,-0.0112,0,0,0,0,0,0,0,-0.0405,-0.0401,-0.0366,-0.0368,-0.0364,-0.0347,-0.0342,-0.0288,-0.0256,-0.0316,-0.0313,-0.031,-0.0195,-0.0182,-0.0173,-0.0091,-0.0119,-0.0114,-0.0111,-0.0108,0.0017,0.0016,0,0,0,0,0,0,-0.0417,-0.0403,-0.0368,-0.0365,-0.0384,-0.0347,-0.0341,-0.0334,-0.0259,-0.0249,-0.031,-0.0309,-0.0192,-0.0179,-0.0167,-0.013,-0.0113,-0.0108,-0.0105,0.0017,0.0017,0.0016,0,0,0,0,0,0,-0.0418,-0.0414,-0.037,-0.0384,-0.0378,-0.0346,-0.0339,-0.0333,-0.0323,-0.0256,-0.0244,-0.0307,-0.0192,-0.0175,-0.0133,-0.0123,-0.0105,-0.01,0.0017,0.0017,0.0016,-0.0052,0,0,0,0,0,0,-0.042,-0.0415,-0.0415,-0.0385,-0.0377,-0.0362,-0.034,-0.0333,-0.0322,-0.0319,-0.0249,-0.0235,-0.019,-0.0143,-0.0128,-0.0115,-0.0096,0.0017,0.0017,0.0017,-0.0049,-0.0054,-0.0058,0,0,0,0,0,-0.0421,-0.0425,-0.0416,-0.0412,-0.0379,-0.0362,-0.0357,-0.0332,-0.0322,-0.0321,-0.0281,-0.0237,-0.0133,-0.0138,-0.0121,-0.0106,0.0017,0.0017,0.0017,-0.0047,-0.0053,-0.0058,0,0,0,0,0,0,-0.0443,-0.042,-0.041,-0.0405,-0.0389,-0.0357,-0.0354,-0.0338,-0.0306,-0.0302,-0.024,-0.0223,-0.019,-0.0138,-0.0146,-0.0072,-0.0049,-0.0046,-0.0104,-0.0108,-0.0113,-0.0102,-0.0091,0,0,0,0,0,-0.0449,-0.0448,-0.0422,-0.042,-0.0414,-0.0385,-0.0376,-0.0361,-0.033,-0.0316,-0.0269,-0.0217,-0.0176,-0.0137,-0.01,-0.0048,-0.0002,-0.0027,-0.0032,-0.0036,-0.0016,0.0043,0.0046,0.0016,0.0016,0.0016,0,0,-0.0459,-0.0446,-0.0445,-0.0425,-0.041,-0.0403,-0.0379,-0.037,-0.0357,-0.0302,-0.0272,-0.024,-0.0173,-0.0133,-0.0109,-0.0084,-0.0008,-0.0036,-0.004,-0.0017,0.0043,0.0046,0.0049,0.0016,0.0016,0.0016,0,0,-0.048,-0.0464,-0.0472,-0.0459,-0.0442,-0.0422,-0.0423,-0.0394,-0.0373,-0.0349,-0.0309,-0.0266,-0.0205,-0.0146,-0.011,-0.0108,-0.0051,-0.0103,-0.0091,-0.0036,-0.0032,-0.0029,0.0011,0.0019,-0.0084,-0.0084,-0.0084,0,-0.0494,-0.0494,-0.0472,-0.0474,-0.0466,-0.0434,-0.0437,-0.0409,-0.0371,-0.0346,-0.0349,-0.0257,-0.0204,-0.0131,-0.0132,-0.0114,-0.0086,-0.008,-0.0041,-0.0037,-0.0032,0.0009,0.0018,-0.0087,-0.0087,-0.0087,-0.0086,0,-0.0517,-0.0518,-0.0521,-0.051,-0.0498,-0.0497,-0.0459,-0.0441,-0.042,-0.0386,-0.0336,-0.0276,-0.0212,-0.0193,-0.0158,-0.0092,-0.0087,-0.0074,-0.003,-0.0033,0.001,0.0021,-0.0092,-0.0091,-0.009,-0.0089,0,0,-0.0553,-0.0542,-0.0544,-0.0547,-0.0518,-0.0513,-0.0484,-0.0445,-0.0422,-0.0382,-0.0345,-0.0269,-0.0237,-0.0193,-0.0143,-0.0078,-0.0028,-0.006,-0.0056,-0.0024,0.0078,0.0096,0.011,-0.002,-0.0018,-0.0016,0.0085,0,-0.058,-0.0601,-0.0577,-0.0588,-0.0595,-0.0549,-0.0526,-0.0483,-0.044,-0.0396,-0.0315,-0.0269,-0.0236,-0.021,-0.0143,-0.006,0.0001,-0.0057,0.0081,0.0086,0.01,0.0124,0.0096,0.0186,0.0097,0.0098,0.01,0,-0.0611,-0.0622,-0.0643,-0.063,-0.0627,-0.0621,-0.0576,-0.0551,-0.0465,-0.0432,-0.0361,-0.0303,-0.0196,-0.0184,-0.0026,-0.0073,0.0002,0.0067,0.0072,0.0129,0.0126,0.0181,0.021,0.0119,0.0118,0.0116,0.0115,0,-0.0658,-0.0664,-0.0685,-0.0682,-0.0661,-0.0652,-0.0635,-0.0564,-0.0543,-0.0448,-0.0421,-0.03,-0.0235,-0.0131,0.0007,-0.0012,0.017,0.0161,0.025,0.0251,0.0281,0.0282,0.0276,0.0276,0.0275,0.0275,0.0275,0,-0.0697,-0.0713,-0.0714,-0.0726,-0.0744,-0.0706,-0.0699,-0.0657,-0.0598,-0.0558,-0.0448,-0.0372,-0.0218,-0.0094,0.0007,0.0169,0.0173,0.027,0.029,0.0253,0.025,0.0239,0.0233,0.0279,0.0278,0.0277,0.0277,0,-0.0742,-0.0742,-0.0771,-0.0768,-0.077,-0.0785,-0.0768,-0.076,-0.0687,-0.0632,-0.0603,-0.0421,-0.024,-0.0095,0.0105,0.0183,0.0324,0.0378,0.0319,0.0331,0.0362,0.0352,0.0485,0.0486,0.0488,0.0489,0.049,0,-0.0764,-0.0785,-0.0815,-0.0841,-0.0843,-0.0858,-0.0867,-0.0819,-0.0802,-0.0642,-0.0617,-0.0415,-0.0251,0.0035,0.0215,0.0393,0.0388,0.0465,0.044,0.0383,0.039,0.0377,0.0365,0.0442,0.0443,0.0443,0.0443,0,-0.0804,-0.0817,-0.0843,-0.0904,-0.0933,-0.0963,-0.0964,-0.0963,-0.0876,-0.0807,-0.0628,-0.0473,-0.0152,0.0091,0.0319,0.0411,0.0428,0.0481,0.0464,0.0387,0.035,0.0353,0.0342,0.0448,0.0447,0.0447,0.0447,0.0446,-0.0828,-0.0864,-0.0905,-0.0958,-0.1007,-0.1048,-0.1055,-0.102,-0.0982,-0.0814,-0.0663,-0.0393,-0.0142,0.0219,0.0375,0.0514,0.0506,0.0527,0.0523,0.0519,0.049,0.0458,0.0569,0.0569,0.0569,0.057,0.057,0,-0.0856,-0.0895,-0.0953,-0.1022,-0.1084,-0.1102,-0.1105,-0.1073,-0.0999,-0.0786,-0.0604,-0.0316,-0.0043,0.0216,0.0453,0.0577,0.0549,0.0581,0.0524,0.0519,0.0515,0.0483,0.0562,0.0562,0.0563,0.0563,0,0,-0.0872,-0.0931,-0.0965,-0.1069,-0.1125,-0.1189,-0.1187,-0.1097,-0.0941,-0.071,-0.0488,-0.0258,0.0039,0.0193,0.0346,0.048,0.0461,0.0476,0.0467,0.0376,0.037,0.0467,0.0411,0,0,0,0,0]}],[{"header":{"parameterUnit":"m.s-1","parameterCategory":2,"la1":30.2991,"la2":30.254,"lo1":-89.0895,"lo2":-89.0444,"dy":0.0017,"dx":0.0017,"nx":28,"ny":28,"refTime":"2024-08-01T09:00:00:Z","depth":"4","parameterNumber":2,"parameterNumberName":"U-component_of_CURRENTS"},"data":[0,0,0,0,0,0,0,0,0,0,0,0,0,0,0,0,0,0,0,0,0,0,0,0,0,0,0,0,0,0,0,0,0,0,0,0,0,0,0,0,0,0,0,0,0,0,0,0,0,0,0,0,0,0,0,0,0,0,-0.1484,-0.1484,0,-0.1514,-0.1514,-0.1514,-0.1548,-0.1549,-0.155,-0.155,-0.1582,-0.1582,-0.1583,0,0,0,0,0,0,0,0,0,0,0,0,0,-0.1422,-0.1423,-0.1484,-0.1484,-0.1485,-0.1514,-0.1514,-0.1514,-0.1548,-0.1549,-0.155,-0.1551,-0.1582,-0.1582,-0.1583,0,0,0,0,0,0,0,0,0,0,0,0,0,-0.1448,-0.1423,-0.1484,-0.1507,-0.151,-0.1514,-0.1514,-0.1514,-0.1548,-0.1549,-0.155,-0.1551,-0.1582,-0.1582,-0.1583,-0.1562,0,0,-0.1583,-0.1583,0,0,0,0,0,0,0,0,-0.1446,-0.145,-0.1503,-0.1506,-0.1509,-0.1531,-0.1504,-0.1531,-0.1548,-0.1531,-0.155,-0.1552,-0.1566,-0.1568,-0.1567,-0.1564,-0.1565,-0.1583,-0.1584,-0.1584,-0.1584,0,0,0,0,0,0,0,-0.1444,-0.1448,-0.1493,-0.1504,-0.1507,-0.1505,-0.151,-0.1509,-0.154,-0.1532,-0.1535,-0.1542,-0.1567,-0.1567,-0.1568,-0.1565,-0.1583,-0.1584,-0.1584,-0.1584,-0.16,-0.16,0,0,0,0,0,0,-0.1447,-0.1447,-0.1492,-0.1494,-0.1482,-0.1505,-0.1511,-0.152,-0.154,-0.1545,-0.1541,-0.1544,-0.1566,-0.1568,-0.157,-0.1614,-0.1584,-0.1584,-0.1584,-0.1599,-0.16,-0.16,0,0,0,0,0,0,-0.1445,-0.145,-0.1491,-0.1473,-0.1478,-0.1506,-0.1516,-0.152,-0.1547,-0.1547,-0.1552,-0.1567,-0.1567,-0.1569,-0.1591,-0.1613,-0.1584,-0.1584,-0.1599,-0.16,-0.16,-0.1658,0,0,0,0,0,0,-0.1443,-0.145,-0.1467,-0.1473,-0.148,-0.1508,-0.1515,-0.152,-0.1549,-0.1553,-0.157,-0.1573,-0.1568,-0.159,-0.1591,-0.1612,-0.1584,-0.1599,-0.1599,-0.16,-0.1656,-0.1661,-0.1665,0,0,0,0,0,-0.1441,-0.1459,-0.1468,-0.1474,-0.15,-0.1508,-0.1511,-0.1532,-0.1549,-0.156,-0.1576,-0.1573,-0.1594,-0.1591,-0.1592,-0.1614,-0.1599,-0.1599,-0.16,-0.1654,-0.166,-0.1665,0,0,0,0,0,0,-0.1444,-0.1464,-0.1475,-0.15,-0.151,-0.1515,-0.1534,-0.1545,-0.1565,-0.158,-0.158,-0.1583,-0.1607,-0.1598,-0.1595,-0.1617,-0.1594,-0.1595,-0.1635,-0.1641,-0.1645,-0.1651,-0.1585,0,0,0,0,0,-0.1452,-0.1471,-0.1483,-0.1504,-0.1514,-0.1528,-0.154,-0.1553,-0.1567,-0.1578,-0.159,-0.1599,-0.1603,-0.1615,-0.1613,-0.1629,-0.1608,-0.1641,-0.1645,-0.1649,-0.1652,-0.1646,-0.1651,-0.1602,-0.1602,-0.1602,0,0,-0.1462,-0.1473,-0.1487,-0.1507,-0.152,-0.1536,-0.1538,-0.1563,-0.1585,-0.1577,-0.1616,-0.1615,-0.1609,-0.1627,-0.1637,-0.1629,-0.1648,-0.165,-0.1653,-0.1654,-0.1647,-0.1652,-0.1657,-0.1603,-0.1602,-0.1602,0,0,-0.1473,-0.1499,-0.1514,-0.1526,-0.1549,-0.1558,-0.1571,-0.159,-0.1611,-0.1637,-0.1638,-0.1653,-0.1663,-0.1665,-0.1666,-0.1691,-0.1668,-0.169,-0.1725,-0.172,-0.1724,-0.1727,-0.1694,-0.1694,-0.1697,-0.1697,-0.1697,0,-0.1486,-0.1506,-0.1519,-0.1532,-0.1554,-0.1572,-0.1595,-0.1611,-0.1637,-0.1655,-0.1659,-0.1678,-0.168,-0.1698,-0.1711,-0.1703,-0.1685,-0.171,-0.1727,-0.173,-0.1732,-0.1697,-0.1697,-0.17,-0.17,-0.1699,-0.1699,0,-0.1494,-0.1524,-0.1536,-0.1563,-0.1584,-0.1609,-0.1633,-0.1662,-0.1692,-0.1703,-0.1734,-0.1732,-0.1743,-0.1746,-0.1741,-0.1762,-0.1736,-0.1731,-0.1718,-0.1741,-0.1702,-0.17,-0.1704,-0.1703,-0.1702,-0.1702,0,0,-0.1488,-0.1536,-0.1543,-0.1565,-0.1609,-0.1622,-0.167,-0.1707,-0.1737,-0.176,-0.179,-0.1805,-0.1805,-0.1805,-0.1798,-0.18,-0.1804,-0.1782,-0.178,-0.1755,-0.1773,-0.1644,-0.1629,-0.1807,-0.1807,-0.1807,-0.1733,0,-0.1496,-0.153,-0.1557,-0.1602,-0.1624,-0.1669,-0.1706,-0.1743,-0.1775,-0.1804,-0.1813,-0.183,-0.1826,-0.1834,-0.1839,-0.1807,-0.1804,-0.1823,-0.1747,-0.1744,-0.1633,-0.1625,-0.1809,-0.1731,-0.1731,-0.1731,-0.173,0,-0.1487,-0.1516,-0.1562,-0.1626,-0.1642,-0.1674,-0.1743,-0.1777,-0.1821,-0.1845,-0.1869,-0.187,-0.1876,-0.187,-0.1838,-0.185,-0.1822,-0.1796,-0.1793,-0.1652,-0.1613,-0.1704,-0.1727,-0.1727,-0.1727,-0.1728,-0.1728,0,-0.1452,-0.1517,-0.1559,-0.1581,-0.1651,-0.1691,-0.1733,-0.179,-0.1812,-0.1866,-0.1876,-0.1893,-0.1882,-0.1867,-0.1815,-0.1833,-0.1758,-0.1774,-0.1629,-0.1619,-0.1735,-0.1732,-0.1758,-0.1758,-0.1758,-0.1758,-0.1758,0,-0.1432,-0.1466,-0.1549,-0.1567,-0.1614,-0.1677,-0.1722,-0.1771,-0.1821,-0.1824,-0.1887,-0.1874,-0.1884,-0.1842,-0.1812,-0.1689,-0.1753,-0.1622,-0.1591,-0.1757,-0.1758,-0.1732,-0.173,-0.1755,-0.1756,-0.1756,-0.1757,0,-0.1369,-0.1432,-0.1475,-0.1565,-0.1593,-0.1621,-0.1694,-0.1711,-0.1785,-0.179,-0.1803,-0.1843,-0.1784,-0.176,-0.1708,-0.1651,-0.1573,-0.1521,-0.1671,-0.1652,-0.1442,-0.1444,-0.1355,-0.135,-0.1346,-0.1342,-0.1339,0,-0.1335,-0.1355,-0.1447,-0.1466,-0.1507,-0.156,-0.1583,-0.1672,-0.1678,-0.1744,-0.172,-0.171,-0.1711,-0.1525,-0.1534,-0.1439,-0.1431,-0.1389,-0.1448,-0.1422,-0.1401,-0.141,-0.1418,-0.1332,-0.1331,-0.133,-0.1329,0,-0.1261,-0.1307,-0.134,-0.137,-0.1405,-0.1431,-0.1472,-0.1466,-0.1547,-0.163,-0.1589,-0.1558,-0.1482,-0.1431,-0.135,-0.13,-0.1418,-0.1344,-0.1354,-0.1409,-0.1393,-0.1378,-0.1391,-0.1313,-0.1316,-0.1317,-0.1318,0,-0.1201,-0.1196,-0.1235,-0.1247,-0.1284,-0.1271,-0.1323,-0.1324,-0.1345,-0.1436,-0.1413,-0.142,-0.146,-0.1355,-0.1288,-0.1211,-0.1209,-0.1193,-0.1211,-0.1228,-0.1219,-0.1181,-0.0996,0,0,0,0,0,-0.1128,-0.1098,-0.1103,-0.1099,-0.113,-0.1144,-0.1221,-0.1277,-0.1362,-0.1292,-0.1351,-0.1283,-0.1208,-0.1221,-0.1108,-0.1207,-0.1197,-0.1073,-0.1186,-0.1229,-0.1246,-0.1246,0,0,0,0,0,0,-0.1071,-0.107,-0.1053,-0.0962,-0.0934,-0.0943,-0.0991,-0.1067,-0.1042,-0.1148,-0.1107,-0.1193,-0.1125,-0.1222,-0.1071,-0.1068,-0.1113,-0.1086,-0.1082,-0.1219,-0.1235,-0.1249,-0.1255,0,0,0,0,0]},{"header":{"parameterUnit":"m.s-1","parameterCategory":2,"la1":30.2991,"la2":30.254,"lo1":-89.0895,"lo2":-89.0444,"dy":0.0017,"dx":0.0017,"nx":28,"ny":28,"refTime":"2024-08-01T09:00:00:Z","depth":"4","parameterNumber":3,"parameterNumberName":"V-component_of_CURRENTS"},"data":[0,0,0,0,0,0,0,0,0,0,0,0,0,0,0,0,0,0,0,0,0,0,0,0,0,0,0,0,0,0,0,0,0,0,0,0,0,0,0,0,0,0,0,0,0,0,0,0,0,0,0,0,0,0,0,0,0,0,-0.0295,-0.0295,0,-0.0277,-0.0277,-0.0277,-0.0259,-0.0258,-0.0258,-0.0258,-0.022,-0.0219,-0.0218,0,0,0,0,0,0,0,0,0,0,0,0,0,-0.0309,-0.0309,-0.0295,-0.0295,-0.0295,-0.0277,-0.0277,-0.0276,-0.0259,-0.0258,-0.0258,-0.0258,-0.022,-0.0219,-0.0218,0,0,0,0,0,0,0,0,0,0,0,0,0,-0.0297,-0.0309,-0.0295,-0.0284,-0.0283,-0.0277,-0.0277,-0.0276,-0.0259,-0.0258,-0.0258,-0.0258,-0.022,-0.0219,-0.0218,-0.0215,0,0,-0.0214,-0.0213,0,0,0,0,0,0,0,0,-0.0298,-0.0297,-0.0286,-0.0285,-0.0284,-0.0271,-0.0268,-0.0255,-0.0259,-0.0267,-0.0258,-0.0258,-0.0236,-0.0233,-0.0229,-0.0213,-0.0211,-0.0214,-0.0213,-0.0212,-0.0212,0,0,0,0,0,0,0,-0.0299,-0.0297,-0.0287,-0.0286,-0.0285,-0.0279,-0.0277,-0.0265,-0.0252,-0.0266,-0.0265,-0.0265,-0.0235,-0.0231,-0.0228,-0.0211,-0.0214,-0.0213,-0.0212,-0.0211,-0.0211,-0.0212,0,0,0,0,0,0,-0.0303,-0.0298,-0.0288,-0.0287,-0.0292,-0.0279,-0.0277,-0.0274,-0.0252,-0.0249,-0.0265,-0.0264,-0.0233,-0.023,-0.0227,-0.0221,-0.0212,-0.0211,-0.021,-0.021,-0.0211,-0.0212,0,0,0,0,0,0,-0.0304,-0.0303,-0.0289,-0.0293,-0.0291,-0.0279,-0.0277,-0.0274,-0.0275,-0.0252,-0.0248,-0.0268,-0.0233,-0.0229,-0.0225,-0.022,-0.0211,-0.0209,-0.0209,-0.021,-0.0211,-0.0211,0,0,0,0,0,0,-0.0304,-0.0303,-0.0307,-0.0293,-0.0291,-0.0292,-0.0277,-0.0274,-0.0275,-0.0273,-0.0253,-0.0249,-0.0232,-0.0228,-0.0224,-0.0218,-0.0208,-0.0208,-0.021,-0.0211,-0.021,-0.0212,-0.0214,0,0,0,0,0,-0.0305,-0.0312,-0.0307,-0.0306,-0.0295,-0.0292,-0.0291,-0.0281,-0.0275,-0.0279,-0.0268,-0.025,-0.0234,-0.0227,-0.0223,-0.0216,-0.0207,-0.0209,-0.0211,-0.0209,-0.0211,-0.0213,0,0,0,0,0,0,-0.032,-0.0311,-0.0305,-0.0309,-0.0304,-0.029,-0.0295,-0.0287,-0.0281,-0.0281,-0.0257,-0.0253,-0.0251,-0.0241,-0.0233,-0.0224,-0.0219,-0.022,-0.0219,-0.0221,-0.0223,-0.0201,-0.0207,0,0,0,0,0,-0.0326,-0.0331,-0.0318,-0.0324,-0.0322,-0.031,-0.0309,-0.0302,-0.0294,-0.0291,-0.0276,-0.0265,-0.0254,-0.0244,-0.0239,-0.0229,-0.0197,-0.0226,-0.0227,-0.0229,-0.0211,-0.0156,-0.015,-0.0217,-0.0217,-0.0217,0,0,-0.0335,-0.033,-0.0333,-0.0328,-0.0323,-0.0324,-0.0309,-0.0312,-0.0308,-0.0288,-0.0283,-0.0275,-0.0257,-0.0249,-0.0246,-0.0237,-0.0199,-0.0231,-0.0232,-0.0213,-0.0157,-0.015,-0.0144,-0.0219,-0.0218,-0.0218,0,0,-0.0355,-0.035,-0.0361,-0.0357,-0.0354,-0.0343,-0.0347,-0.0336,-0.0327,-0.0327,-0.0308,-0.0287,-0.0287,-0.0252,-0.0239,-0.0248,-0.0217,-0.0264,-0.0241,-0.0189,-0.0182,-0.0175,-0.0143,-0.0134,-0.0256,-0.0256,-0.0256,0,-0.0368,-0.0374,-0.0364,-0.0371,-0.0369,-0.0354,-0.036,-0.0349,-0.0338,-0.0322,-0.0332,-0.0297,-0.0279,-0.0236,-0.0239,-0.0245,-0.0225,-0.023,-0.0187,-0.018,-0.0173,-0.0142,-0.0131,-0.0256,-0.0256,-0.0256,-0.0256,0,-0.0391,-0.0397,-0.0404,-0.0404,-0.0401,-0.0406,-0.0387,-0.038,-0.0372,-0.035,-0.0322,-0.0296,-0.0267,-0.0262,-0.0251,-0.0195,-0.0202,-0.02,-0.0173,-0.0165,-0.0134,-0.0123,-0.0256,-0.0256,-0.0256,-0.0256,0,0,-0.0417,-0.042,-0.0424,-0.043,-0.0418,-0.042,-0.0406,-0.0381,-0.0367,-0.0347,-0.0317,-0.0279,-0.0255,-0.0238,-0.0214,-0.0159,-0.0095,-0.0159,-0.0156,-0.0112,0.0004,-0.002,-0.001,-0.0089,-0.0086,-0.0085,0.0001,0,-0.0439,-0.0463,-0.045,-0.0468,-0.0477,-0.045,-0.0439,-0.0411,-0.0386,-0.0355,-0.0295,-0.0271,-0.0249,-0.0238,-0.0175,-0.0123,-0.0064,-0.0119,-0.0023,-0.002,-0.0028,0.0004,-0.0078,0.0009,0.0012,0.0014,0.0015,0,-0.0463,-0.0477,-0.05,-0.0499,-0.05,-0.0504,-0.0477,-0.0465,-0.0402,-0.038,-0.0321,-0.0283,-0.0197,-0.0191,-0.006,-0.0103,-0.0043,0.0005,0.0009,0.0002,-0.0021,0.0002,0.0036,0.0034,0.0033,0.0031,0.003,0,-0.0493,-0.0508,-0.0531,-0.0532,-0.0528,-0.0528,-0.0522,-0.0474,-0.0465,-0.0391,-0.0378,-0.0271,-0.0233,-0.0132,-0.0033,-0.0047,0.0104,0.0096,0.0139,0.0137,0.0133,0.0125,0.0208,0.0208,0.0207,0.0207,0.0207,0,-0.0515,-0.0535,-0.0553,-0.0567,-0.0591,-0.057,-0.0576,-0.0548,-0.0509,-0.0493,-0.0399,-0.0364,-0.0215,-0.0119,-0.0026,0.0089,0.0113,0.0161,0.0169,0.0125,0.0115,0.014,0.0131,0.021,0.021,0.0209,0.0208,0,-0.054,-0.0552,-0.0585,-0.06,-0.061,-0.063,-0.0637,-0.0637,-0.0592,-0.057,-0.0551,-0.0427,-0.0291,-0.0146,0.0026,0.0085,0.0203,0.024,0.0178,0.0178,0.0198,0.0188,0.0299,0.0299,0.0299,0.0299,0.03,0,-0.0551,-0.0573,-0.0622,-0.0653,-0.0665,-0.0692,-0.071,-0.0686,-0.0679,-0.0612,-0.0599,-0.0464,-0.0367,-0.0133,0.0012,0.0205,0.0226,0.0275,0.0255,0.0217,0.0214,0.0203,0.0193,0.03,0.03,0.03,0.03,0,-0.0571,-0.0597,-0.0626,-0.0694,-0.0734,-0.0771,-0.0789,-0.0788,-0.0748,-0.0722,-0.0618,-0.0486,-0.0327,-0.0134,0.0024,0.0154,0.0236,0.0277,0.0278,0.0259,0.0219,0.0213,0.0203,0.03,0.03,0.03,0.03,0,-0.0587,-0.0621,-0.067,-0.0723,-0.0785,-0.0823,-0.0827,-0.0801,-0.0787,-0.0699,-0.0669,-0.0489,-0.0375,-0.0162,-0.0027,0.0113,0.014,0.0161,0.0168,0.0169,0.0102,0.003,0.0079,0,0,0,0,0,-0.0597,-0.0636,-0.0692,-0.0756,-0.0818,-0.0847,-0.0866,-0.0855,-0.0819,-0.0751,-0.0702,-0.0549,-0.032,-0.0214,-0.0074,-0.0041,0.0148,0.0121,0.0172,0.0303,0.0302,0.0244,0,0,0,0,0,0,-0.0607,-0.0662,-0.0692,-0.077,-0.0814,-0.0877,-0.0887,-0.0863,-0.0802,-0.0745,-0.0606,-0.0543,-0.0303,-0.0393,-0.0078,-0.0037,0.0005,0.0235,0.0236,0.0303,0.0303,0.0302,0.0242,0,0,0,0,0]}]]